TimeMST,TemperatureF,Dew PointF,Humidity,Sea Level PressureIn,VisibilityMPH,Wind Direction,Wind SpeedMPH,Gust SpeedMPH,PrecipitationIn,Events,Conditions,WindDirDegrees,DateUTC
12:51 AM,16.0,12.0,84,30.33,4.0,South,3.5,-,N/A,,Clear,190,2013-12-18 07:51:00
1:51 AM,17.1,12.9,84,30.29,4.0,Calm,Calm,-,N/A,,Clear,0,2013-12-18 08:51:00
2:51 AM,14.0,10.9,88,30.29,5.0,Calm,Calm,-,N/A,,Clear,0,2013-12-18 09:51:00
3:51 AM,12.9,9.0,84,30.28,5.0,SW,4.6,-,N/A,,Clear,220,2013-12-18 10:51:00
4:51 AM,12.9,9.0,84,30.25,4.0,South,4.6,-,N/A,,Clear,170,2013-12-18 11:51:00
5:51 AM,14.0,10.0,84,30.25,4.0,East,3.5,-,N/A,,Clear,100,2013-12-18 12:51:00
6:51 AM,10.9,8.1,88,30.25,4.0,Calm,Calm,-,N/A,,Clear,0,2013-12-18 13:51:00
7:51 AM,10.9,8.1,88,30.27,3.0,Calm,Calm,-,N/A,,Clear,0,2013-12-18 14:51:00
8:05 AM,10.9,8.1,88,30.10,2.5,Calm,Calm,-,N/A,,Clear,0,2013-12-18 15:05:00
8:51 AM,12.9,10.0,88,30.27,2.5,Calm,Calm,-,N/A,,Clear,0,2013-12-18 15:51:00
8:59 AM,14.0,10.0,84,30.11,3.0,Calm,Calm,-,N/A,,Clear,0,2013-12-18 15:59:00
9:06 AM,15.1,10.9,84,30.11,2.5,SW,3.5,-,N/A,,Clear,230,2013-12-18 16:06:00
9:14 AM,16.0,12.0,84,30.11,3.0,SW,3.5,-,N/A,,Clear,230,2013-12-18 16:14:00
9:51 AM,18.0,14.0,84,30.24,3.0,West,3.5,-,N/A,,Clear,270,2013-12-18 16:51:00
10:25 AM,19.9,17.1,89,30.09,2.5,SW,3.5,-,N/A,,Clear,230,2013-12-18 17:25:00
10:49 AM,21.2,17.6,86,30.08,3.0,Calm,Calm,-,N/A,,Clear,0,2013-12-18 17:49:00
10:51 AM,21.0,17.1,85,30.20,3.0,Calm,Calm,-,N/A,,Clear,0,2013-12-18 17:51:00
11:51 AM,25.0,19.0,78,30.16,3.0,Calm,Calm,-,N/A,,Haze,0,2013-12-18 18:51:00
12:51 PM,28.9,19.9,69,30.09,4.0,WNW,3.5,-,N/A,,Haze,300,2013-12-18 19:51:00
1:51 PM,32.0,19.9,61,30.04,5.0,Calm,Calm,-,N/A,,Haze,0,2013-12-18 20:51:00
2:51 PM,32.0,19.9,61,30.01,5.0,WSW,4.6,-,N/A,,Haze,240,2013-12-18 21:51:00
3:51 PM,30.0,21.0,69,30.01,4.0,SW,4.6,-,N/A,,Haze,220,2013-12-18 22:51:00
4:51 PM,28.0,21.9,78,29.99,3.0,Calm,Calm,-,N/A,,Haze,0,2013-12-18 23:51:00
5:51 PM,27.0,19.9,75,29.96,5.0,Calm,Calm,-,N/A,,Haze,0,2013-12-19 00:51:00
6:51 PM,28.0,21.0,75,29.95,5.0,South,3.5,-,N/A,,Haze,170,2013-12-19 01:51:00
7:51 PM,27.0,19.9,75,29.92,5.0,ESE,6.9,-,N/A,,Haze,120,2013-12-19 02:51:00
8:51 PM,23.0,19.0,85,29.91,4.0,ENE,6.9,-,N/A,,Partly Cloudy,70,2013-12-19 03:51:00
9:51 PM,26.1,21.0,81,29.85,5.0,Calm,Calm,-,N/A,,Haze,0,2013-12-19 04:51:00
10:51 PM,28.0,21.9,78,29.81,4.0,SSW,6.9,-,N/A,,Haze,210,2013-12-19 05:51:00
11:51 PM,28.9,23.0,78,29.77,4.0,NE,3.5,-,0.00,,Overcast,40,2013-12-19 06:51:00